Home > Time Zones > World Clock > Weather > Russia > Perm > Past weeks

Flag for Russia Weather past 2 weeks in Perm, Russia

Now
14 °F

Clear.


Feels Like: 3 °F
Forecast: 7 / 24 °F
Wind: 8 mph from Southeast

Location: Perm'/Bolshoe Savino

Current Time: Mar 7, 2015 at 9:34:21 AM

Latest Report: Mar 7, 2015 at 9:00 AM


Visibility: 10 mi

Pressure: 30.39 "Hg

Humidity: 92%

Dew point: 12 °F

Location of PermLocation

Historic Weather in Perm — Graph

°F

Perm temperature yesterday

Maximum temperature yesterday: 32 °F (at 3:00 PM)
Minimum temperature yesterday: 16 °F (at 8:30 AM)
Average temperature yesterday: 24 °F

Past Weeks' High & Low Weather Summary

 TemperatureHumidityPressure
High43 °F (Mar 3, 3:00 PM)100% (Feb 22, 9:00 AM)30.57 "Hg (Feb 22, 9:00 AM)
Low-13 °F (Feb 20, 9:30 AM)26% (Mar 2, 5:00 PM)29.62 "Hg (Feb 21, 12:00 AM)
Average24 °F75%30.26 "Hg
* Reported Feb 20 8:00 AM — Mar 7 8:00 AM, Perm, Weather by CustomWeather, © 2015

Note: Actual official high and low records may vary slightly from our data, if they occured in-between our weather recording intervals... More about our weather records

Advertising

Perm weather history for previous 24 hours

 ConditionsComfort  
Time TempWeatherWind HumidityBarometerVisibility
8:00 AM
Sat, Mar 7
12 °FClear.8 mph92%30.39 "Hg10 mi
7:30 AM12 °FClear.8 mph92%30.36 "Hg10 mi
7:00 AM12 °FClear.8 mph85%30.36 "Hg10 mi
6:30 AM14 °FClear.8 mph85%30.36 "Hg10 mi
6:00 AM14 °FClear.8 mph85%30.36 "Hg10 mi
5:30 AM16 °FClear.8 mph79%30.36 "Hg10 mi
5:00 AM16 °FClear.8 mph79%30.39 "Hg10 mi
4:30 AM18 °FClear.10 mph73%30.36 "Hg10 mi
4:00 AM18 °FClear.8 mph73%30.36 "Hg10 mi
3:30 AM16 °FClear.10 mph79%30.36 "Hg10 mi
3:00 AM16 °FClear.8 mph73%30.39 "Hg10 mi
2:30 AM16 °FClear.6 mph67%30.36 "Hg10 mi
2:00 AM19 °FClear.8 mph63%30.36 "Hg10 mi
1:30 AM19 °FClear.10 mph63%30.36 "Hg10 mi
1:00 AM19 °FClear.8 mph63%30.36 "Hg10 mi
12:30 AM19 °FClear.8 mph63%30.36 "Hg10 mi
12:00 AM18 °FClear.8 mph68%30.36 "Hg10 mi
11:30 PM
Fri, Mar 6
18 °FPassing clouds.6 mph68%30.36 "HgN/A
11:00 PM19 °FClear.8 mph58%30.36 "Hg10 mi
10:30 PM19 °FClear.8 mph68%30.36 "Hg10 mi
10:00 PM18 °FClear.6 mph68%30.36 "Hg10 mi
9:30 PM18 °FClear.3 mph73%30.36 "Hg10 mi
9:00 PM23 °FClear.3 mph58%30.36 "Hg10 mi
8:30 PM25 °FSunny.6 mph59%30.36 "Hg10 mi
8:00 PM27 °FSunny.3 mph54%30.36 "Hg10 mi
7:30 PM25 °FPassing clouds.3 mph59%30.36 "HgN/A
7:00 PM27 °FSunny.6 mph54%30.36 "Hg10 mi
6:30 PM28 °FSunny.3 mph51%30.36 "Hg10 mi
6:00 PM30 °FSunny.6 mph51%30.36 "Hg10 mi
5:30 PM30 °FSunny.8 mph51%30.36 "Hg10 mi
5:00 PM32 °FSunny.8 mph44%30.36 "Hg10 mi
4:30 PM32 °FSunny.8 mph44%30.36 "Hg10 mi
4:00 PM30 °FSunny.8 mph51%30.36 "Hg10 mi
3:30 PM32 °FSunny.8 mph47%30.36 "Hg10 mi
3:00 PM32 °FSunny.8 mph47%30.36 "Hg10 mi
2:30 PM30 °FSunny.8 mph51%30.36 "Hg10 mi
2:00 PM28 °FSunny.8 mph55%30.36 "Hg10 mi
1:30 PM28 °FSunny.8 mph55%30.36 "Hg10 mi
1:00 PM28 °FSunny.8 mph51%30.36 "Hg10 mi
12:30 PM28 °FSunny.10 mph51%30.36 "Hg10 mi
12:00 PM27 °FSunny.10 mph54%30.36 "Hg10 mi
11:30 AM25 °FSunny.10 mph59%30.36 "Hg10 mi
11:00 AM25 °FSunny.10 mph59%30.39 "Hg10 mi
10:30 AM23 °FSunny.8 mph63%30.39 "Hg10 mi
10:00 AM21 °FSunny.6 mph68%30.39 "Hg10 mi
9:30 AM19 °FClear.6 mph73%30.39 "Hg10 mi
9:00 AM18 °FClear.3 mph79%30.36 "Hg10 mi
Weather by CustomWeather, © 2015

See weather overviewHow to use our weather pages